EW2849 Weather Reports


Display with metric or nautical units.
time (UTC)temp
F
wind
direction
speed
MPH
gust
MPH
rain 1hr
in
rain 24hr
in
rain mn
in
humidity
%
barometer
mb
20260505023928 53 338 4.0 4.0 0.00 0.00 0.00 100 1008.8
20260505022727 53 338 4.0 4.0 0.00 0.00 0.00 100 1008.8
20260505021526 53 338 4.0 4.0 0.00 0.00 0.00 100 1008.8
20260505020324 53 338 4.0 4.0 0.00 0.00 0.00 100 1008.8
20260505015123 53 338 4.0 4.0 0.00 0.00 0.00 100 1008.8
20260505013922 54 338 4.0 4.0 0.00 0.00 0.00 100 1008.8
20260505012723 54 338 4.0 4.0 0.00 0.00 0.00 100 1008.8
20260505011520 54 338 4.0 4.0 0.00 0.00 0.00 100 1008.8
20260505010320 54 338 4.0 4.0 0.00 0.00 0.00 100 1008.8
20260505005118 54 338 4.0 4.0 0.00 0.00 0.00 100 1008.8
20260505003918 55 338 4.0 4.0 0.00 0.00 0.00 100 1008.8
20260505002716 55 338 4.0 4.0 0.00 0.00 0.00 100 1008.8
20260505000414 55 338 4.0 4.0 0.00 0.00 0.00 100 1008.8
20260504235213 56 338 4.0 4.0 0.00 0.00 0.00 100 1011.4
20260504234012 56 338 4.0 4.0 0.00 0.00 0.00 100 1012.2
20260504232810 56 338 4.0 4.0 0.00 0.00 0.00 100 1012.2
20260504231609 56 338 4.0 4.0 0.00 0.00 0.00 100 1012.2
20260504230409 56 338 4.0 4.0 0.00 0.00 0.00 100 1012.2
20260504225228 56 338 4.0 4.0 0.00 0.00 0.00 100 1012.2
20260504224006 56 338 4.0 4.0 0.00 0.00 0.00 100 1012.2
20260504222805 57 338 4.0 4.0 0.00 0.00 0.00 100 1012.2
20260504221604 57 338 4.0 4.0 0.00 0.00 0.00 100 1012.2
20260504220402 57 338 4.0 4.0 0.00 0.00 0.00 100 1012.2
20260504215154 57 338 4.0 4.0 0.00 0.00 0.00 100 1012.2
20260504213953 58 338 4.0 4.0 0.00 0.00 0.00 100 1012.2
20260504212752 58 338 4.0 4.0 0.00 0.00 0.00 100 1012.2
20260504211551 58 338 4.0 4.0 0.00 0.00 0.00 100 1012.2
20260504210350 59 338 4.0 4.0 0.00 0.00 0.00 100 1012.2
20260504205149 59 338 4.0 4.0 0.00 0.00 0.00 100 1012.2
20260504203948 59 338 4.0 4.0 0.00 0.00 0.00 100 1012.2
20260504202746 59 338 4.0 4.0 0.00 0.00 0.00 100 1012.2
20260504201545 59 338 4.0 4.0 0.00 0.00 0.00 100 1012.2
20260504200344 59 338 4.0 4.0 0.00 0.00 0.00 100 1012.2
20260504195143 59 338 4.0 4.0 0.00 0.00 0.00 100 1012.2
20260504193942 59 338 4.0 4.0 0.00 0.00 0.00 100 1011.4
20260504192741 60 338 4.0 4.0 0.00 0.00 0.00 100 1012.2
20260504191540 60 338 4.0 4.0 0.00 0.00 0.00 100 1012.2
20260504190339 61 338 4.0 4.0 0.00 0.00 0.00 100 1012.2
20260504185157 61 338 4.0 4.0 0.00 0.00 0.00 100 1012.2
20260504183936 61 338 4.0 4.0 0.00 0.00 0.00 99 1012.2
20260504182735 62 338 4.0 4.0 0.00 0.00 0.00 99 1012.2
20260504181534 62 338 4.0 4.0 0.00 0.00 0.00 99 1012.2
20260504180333 63 338 4.0 4.0 0.00 0.00 0.00 98 1012.2
20260504175132 63 338 4.0 4.0 0.00 0.00 0.00 97 1012.2
20260504173930 63 338 4.0 4.0 0.00 0.00 0.00 97 1012.2
20260504172729 63 338 4.0 4.0 0.00 0.00 0.00 98 1012.2
20260504171548 63 338 4.0 4.0 0.00 0.00 0.00 98 1012.2
20260504170327 63 338 4.0 4.0 0.00 0.00 0.00 99 1012.2
20260504160322 64 338 4.0 4.0 0.00 0.00 0.00 100 1012.2
20260504150456 64 338 4.0 4.0 0.00 0.00 0.00 100 1012.2
20260504140430 62 338 4.0 4.0 0.00 0.00 0.00 100 1012.2
20260504130424 61 23 2.0 3.0 0.00 0.00 0.00 100 1012.2
20260504110353 64 278 3.0 5.0 0.00 0.00 0.00 100 1012.2
20260504100347 60 225 5.0 6.0 0.00 0.00 0.00 100 1012.2
20260504081536 59 82 4.0 5.0 0.00 0.00 0.00 100 1012.2
20260504080335 58 123 2.0 3.0 0.00 0.00 0.00 100 1012.2
20260504070329 59 293 0.0 1.0 0.00 0.00 0.00 100 1012.2
20260504050319 57 270 0.0 2.0 0.00 0.00 0.00 100 1012.2
20260504045118 56 203 0.0 1.0 0.00 0.00 0.00 100 1012.2
20260504043917 56 198 2.0 2.0 0.00 0.00 0.00 100 1012.2
20260504042716 56 345 1.0 3.0 0.00 0.00 0.00 100 1008.8
20260504041615 55 203 1.0 2.0 0.00 0.00 0.00 100 1012.2
20260504040433 55 207 0.0 1.0 0.00 0.00 0.00 100 1012.2
20260504035213 55 82 1.0 2.0 0.00 0.00 0.00 100 1012.2
20260504034032 55 198 1.0 2.0 0.00 0.00 0.00 100 1012.2
20260504032811 55 180 0.0 1.0 0.00 0.00 0.00 100 1012.2
20260504031629 56 293 5.0 8.0 0.00 0.00 0.00 100 1012.2
20260504030529 56 293 5.0 8.0 0.00 0.00 0.00 100 1012.2
20260504025207 56 293 5.0 8.0 0.00 0.00 0.00 100 1012.2